Time,TemperatureF,DewpointF,PressureIn,WindDirection,WindDirectionDegrees,WindSpeedMPH,WindSpeedGustMPH,Humidity,HourlyPrecipIn,Conditions,Clouds,dailyrainin,SoftwareType,DateUTC
2013-06-18 00:11:00,47.0,-99.9,30.10,WNW,301,7.0,8.0,-999,-99.99,,,-99.99,,2013-06-18 08:11:00,
2013-06-18 00:23:00,46.0,-99.9,30.10,WNW,294,7.0,8.0,-999,-99.99,,,-99.99,,2013-06-18 08:23:00,
2013-06-18 00:33:00,46.0,-99.9,30.10,WNW,285,6.0,7.0,-999,-99.99,,,-99.99,,2013-06-18 08:33:00,
2013-06-18 00:43:00,47.0,-99.9,30.10,NW,315,7.0,9.0,-999,-99.99,,,-99.99,,2013-06-18 08:43:00,
2013-06-18 00:52:00,48.0,-99.9,30.10,WNW,299,10.0,13.0,-999,-99.99,,,-99.99,,2013-06-18 08:52:00,
2013-06-18 01:22:00,46.0,-99.9,30.10,WNW,295,7.0,9.0,-999,-99.99,,,-99.99,,2013-06-18 09:22:00,
2013-06-18 01:34:00,46.0,-99.9,30.10,NW,308,9.0,10.0,-999,-99.99,,,-99.99,,2013-06-18 09:34:00,
2013-06-18 01:43:00,46.0,-99.9,30.10,NW,314,9.0,10.0,-999,-99.99,,,-99.99,,2013-06-18 09:43:00,
2013-06-18 01:53:00,44.0,-99.9,30.10,WNW,302,9.0,11.0,-999,-99.99,,,-99.99,,2013-06-18 09:53:00,
2013-06-18 02:22:00,44.0,-99.9,30.10,NW,308,7.0,7.0,-999,-99.99,,,-99.99,,2013-06-18 10:22:00,
2013-06-18 02:33:00,46.0,-99.9,30.09,WNW,297,6.0,12.0,-999,-99.99,,,-99.99,,2013-06-18 10:33:00,
2013-06-18 02:43:00,45.0,-99.9,30.09,WNW,289,8.0,9.0,-999,-99.99,,,-99.99,,2013-06-18 10:43:00,
2013-06-18 02:53:00,45.0,-99.9,30.09,West,274,10.0,11.0,-999,-99.99,,,-99.99,,2013-06-18 10:53:00,
2013-06-18 03:02:00,44.0,-99.9,30.10,WSW,248,9.0,13.0,-999,-99.99,,,-99.99,,2013-06-18 11:02:00,
2013-06-18 03:11:00,44.0,-99.9,30.09,West,268,7.0,9.0,-999,-99.99,,,-99.99,,2013-06-18 11:11:00,
2013-06-18 03:22:00,44.0,-99.9,30.10,WSW,258,8.0,8.0,-999,-99.99,,,-99.99,,2013-06-18 11:22:00,
2013-06-18 03:32:00,44.0,-99.9,30.09,WNW,298,9.0,10.0,-999,-99.99,,,-99.99,,2013-06-18 11:32:00,
2013-06-18 03:43:00,43.0,-99.9,30.09,WNW,299,9.0,10.0,-999,-99.99,,,-99.99,,2013-06-18 11:43:00,
2013-06-18 03:52:00,43.0,-99.9,30.09,WNW,299,9.0,10.0,-999,-99.99,,,-99.99,,2013-06-18 11:52:00,
2013-06-18 04:02:00,45.0,-99.9,30.09,WNW,294,12.0,13.0,-999,-99.99,,,-99.99,,2013-06-18 12:02:00,
2013-06-18 04:11:00,43.0,-99.9,30.08,WNW,293,9.0,10.0,-999,-99.99,,,-99.99,,2013-06-18 12:11:00,
2013-06-18 04:22:00,43.0,-99.9,30.08,NW,311,10.0,11.0,-999,-99.99,,,-99.99,,2013-06-18 12:22:00,
2013-06-18 04:33:00,45.0,-99.9,30.08,WNW,299,13.0,14.0,-999,-99.99,,,-99.99,,2013-06-18 12:33:00,
2013-06-18 04:43:00,44.0,-99.9,30.07,WNW,290,13.0,16.0,-999,-99.99,,,-99.99,,2013-06-18 12:43:00,
2013-06-18 04:52:00,44.0,-99.9,30.07,WNW,290,8.0,10.0,-999,-99.99,,,-99.99,,2013-06-18 12:52:00,
2013-06-18 05:02:00,44.0,-99.9,30.07,WNW,290,8.0,10.0,-999,-99.99,,,-99.99,,2013-06-18 13:02:00,
2013-06-18 05:12:00,44.0,-99.9,30.06,WNW,290,11.0,13.0,-999,-99.99,,,-99.99,,2013-06-18 13:12:00,
2013-06-18 05:22:00,43.0,-99.9,30.06,West,280,10.0,11.0,-999,-99.99,,,-99.99,,2013-06-18 13:22:00,
2013-06-18 05:34:00,44.0,-99.9,30.06,West,272,13.0,13.0,-999,-99.99,,,-99.99,,2013-06-18 13:34:00,
2013-06-18 05:43:00,43.0,-99.9,30.06,West,273,12.0,13.0,-999,-99.99,,,-99.99,,2013-06-18 13:43:00,
2013-06-18 05:53:00,43.0,-99.9,30.06,WNW,286,11.0,13.0,-999,-99.99,,,-99.99,,2013-06-18 13:53:00,
2013-06-18 06:02:00,43.0,-99.9,30.06,WNW,286,11.0,13.0,-999,-99.99,,,-99.99,,2013-06-18 14:02:00,
2013-06-18 06:12:00,43.0,-99.9,30.05,WNW,291,10.0,13.0,-999,-99.99,,,-99.99,,2013-06-18 14:12:00,
2013-06-18 06:22:00,43.0,-99.9,30.05,West,271,14.0,15.0,-999,-99.99,,,-99.99,,2013-06-18 14:22:00,
2013-06-18 06:33:00,42.0,-99.9,30.06,WNW,283,9.0,11.0,-999,-99.99,,,-99.99,,2013-06-18 14:33:00,
2013-06-18 06:43:00,42.0,-99.9,30.05,WNW,291,12.0,13.0,-999,-99.99,,,-99.99,,2013-06-18 14:43:00,
2013-06-18 06:53:00,42.0,-99.9,30.05,WNW,292,12.0,14.0,-999,-99.99,,,-99.99,,2013-06-18 14:53:00,
2013-06-18 07:11:00,42.0,-99.9,30.05,WNW,291,12.0,13.0,-999,-99.99,,,-99.99,,2013-06-18 15:11:00,
2013-06-18 07:53:00,43.0,-99.9,30.04,NW,305,4.0,9.0,-999,-99.99,,,-99.99,,2013-06-18 15:53:00,
2013-06-18 08:02:00,44.0,-99.9,30.04,West,270,4.0,5.0,-999,-99.99,,,-99.99,,2013-06-18 16:02:00,
2013-06-18 08:12:00,44.0,-99.9,30.04,WNW,285,6.0,9.0,-999,-99.99,,,-99.99,,2013-06-18 16:12:00,
2013-06-18 08:43:00,43.0,-99.9,30.04,West,264,5.0,6.0,-999,-99.99,,,-99.99,,2013-06-18 16:43:00,
2013-06-18 08:53:00,43.0,-99.9,30.04,NW,314,5.0,6.0,-999,-99.99,,,-99.99,,2013-06-18 16:53:00,
2013-06-18 09:12:00,42.0,-99.9,30.03,WNW,300,7.0,9.0,-999,-99.99,,,-99.99,,2013-06-18 17:12:00,
2013-06-18 09:23:00,43.0,-99.9,30.03,WNW,289,4.0,6.0,-999,-99.99,,,-99.99,,2013-06-18 17:23:00,
2013-06-18 09:34:00,44.0,-99.9,30.02,WNW,289,4.0,6.0,-999,-99.99,,,-99.99,,2013-06-18 17:34:00,
2013-06-18 09:43:00,43.0,-99.9,30.02,West,279,5.0,6.0,-999,-99.99,,,-99.99,,2013-06-18 17:43:00,
2013-06-18 09:53:00,45.0,-99.9,30.02,West,274,4.0,7.0,-999,-99.99,,,-99.99,,2013-06-18 17:53:00,
2013-06-18 10:02:00,43.0,-99.9,30.03,West,263,6.0,7.0,-999,-99.99,,,-99.99,,2013-06-18 18:02:00,
2013-06-18 10:12:00,43.0,-99.9,30.03,West,271,7.0,8.0,-999,-99.99,,,-99.99,,2013-06-18 18:12:00,
2013-06-18 10:22:00,43.0,-99.9,30.03,West,273,8.0,10.0,-999,-99.99,,,-99.99,,2013-06-18 18:22:00,
2013-06-18 10:33:00,42.0,-99.9,30.03,West,276,8.0,9.0,-999,-99.99,,,-99.99,,2013-06-18 18:33:00,
2013-06-18 10:43:00,42.0,-99.9,30.03,West,273,9.0,10.0,-999,-99.99,,,-99.99,,2013-06-18 18:43:00,
2013-06-18 10:53:00,42.0,-99.9,30.03,WNW,284,8.0,9.0,-999,-99.99,,,-99.99,,2013-06-18 18:53:00,
2013-06-18 11:02:00,42.0,-99.9,30.03,WNW,288,7.0,9.0,-999,-99.99,,,-99.99,,2013-06-18 19:02:00,
2013-06-18 11:12:00,42.0,-99.9,30.03,WNW,288,7.0,9.0,-999,-99.99,,,-99.99,,2013-06-18 19:12:00,
2013-06-18 11:22:00,42.0,-99.9,30.03,West,275,7.0,8.0,-999,-99.99,,,-99.99,,2013-06-18 19:22:00,
2013-06-18 11:53:00,42.0,-99.9,30.02,WNW,287,8.0,10.0,-999,-99.99,,,-99.99,,2013-06-18 19:53:00,
2013-06-18 12:12:00,42.0,-99.9,30.02,WNW,284,9.0,11.0,-999,-99.99,,,-99.99,,2013-06-18 20:12:00,
2013-06-18 12:23:00,42.0,-99.9,30.02,WNW,287,8.0,10.0,-999,-99.99,,,-99.99,,2013-06-18 20:23:00,
2013-06-18 12:53:00,43.0,-99.9,30.01,West,280,7.0,8.0,-999,-99.99,,,-99.99,,2013-06-18 20:53:00,
2013-06-18 13:12:00,44.0,-99.9,30.01,WNW,286,7.0,9.0,-999,-99.99,,,-99.99,,2013-06-18 21:12:00,
2013-06-18 14:12:00,46.0,-99.9,29.99,WNW,287,10.0,12.0,-999,-99.99,,,-99.99,,2013-06-18 22:12:00,
2013-06-18 14:22:00,46.0,-99.9,29.99,WNW,287,10.0,12.0,-999,-99.99,,,-99.99,,2013-06-18 22:22:00,
2013-06-18 14:43:00,46.0,-99.9,29.98,WNW,292,10.0,12.0,-999,-99.99,,,-99.99,,2013-06-18 22:43:00,
2013-06-18 15:02:00,45.0,-99.9,29.98,WNW,291,12.0,15.0,-999,-99.99,,,-99.99,,2013-06-18 23:02:00,
2013-06-18 15:12:00,45.0,-99.9,29.97,WNW,289,12.0,14.0,-999,-99.99,,,-99.99,,2013-06-18 23:12:00,
2013-06-18 15:23:00,44.0,-99.9,29.97,WNW,288,12.0,14.0,-999,-99.99,,,-99.99,,2013-06-18 23:23:00,
2013-06-18 15:39:00,44.0,-99.9,29.96,WNW,291,11.0,13.0,-999,-99.99,,,-99.99,,2013-06-18 23:39:00,
2013-06-18 15:49:00,44.0,-99.9,29.96,WNW,289,12.0,13.0,-999,-99.99,,,-99.99,,2013-06-18 23:49:00,
2013-06-18 16:12:00,45.0,-99.9,29.95,WNW,287,11.0,12.0,-999,-99.99,,,-99.99,,2013-06-19 00:12:00,
2013-06-18 16:22:00,45.0,-99.9,29.95,WNW,289,11.0,13.0,-999,-99.99,,,-99.99,,2013-06-19 00:22:00,
2013-06-18 16:33:00,45.0,-99.9,29.94,WNW,290,12.0,13.0,-999,-99.99,,,-99.99,,2013-06-19 00:33:00,
2013-06-18 16:43:00,45.0,-99.9,29.94,WNW,291,12.0,13.0,-999,-99.99,,,-99.99,,2013-06-19 00:43:00,
2013-06-18 16:53:00,45.0,-99.9,29.93,WNW,293,11.0,13.0,-999,-99.99,,,-99.99,,2013-06-19 00:53:00,
2013-06-18 17:11:00,45.0,-99.9,29.93,WNW,292,12.0,13.0,-999,-99.99,,,-99.99,,2013-06-19 01:11:00,
2013-06-18 17:22:00,45.0,-99.9,29.92,WNW,292,11.0,12.0,-999,-99.99,,,-99.99,,2013-06-19 01:22:00,
2013-06-18 17:32:00,45.0,-99.9,29.92,WNW,290,11.0,12.0,-999,-99.99,,,-99.99,,2013-06-19 01:32:00,
2013-06-18 17:43:00,46.0,-99.9,29.91,WNW,287,9.0,11.0,-999,-99.99,,,-99.99,,2013-06-19 01:43:00,
2013-06-18 17:53:00,46.0,-99.9,29.91,WNW,282,10.0,12.0,-999,-99.99,,,-99.99,,2013-06-19 01:53:00,
2013-06-18 19:12:00,44.0,-99.9,29.87,WNW,289,17.0,19.0,-999,-99.99,,,-99.99,,2013-06-19 03:12:00,
2013-06-18 19:22:00,44.0,-99.9,29.87,WNW,288,17.0,18.0,-999,-99.99,,,-99.99,,2013-06-19 03:22:00,
2013-06-18 19:43:00,45.0,-99.9,29.86,WNW,284,16.0,17.0,-999,-99.99,,,-99.99,,2013-06-19 03:43:00,
2013-06-18 20:23:00,47.0,-99.9,29.86,WNW,293,11.0,16.0,-999,-99.99,,,-99.99,,2013-06-19 04:23:00,
2013-06-18 21:23:00,49.0,-99.9,29.85,SSE,160,4.0,6.0,-999,-99.99,,,-99.99,,2013-06-19 05:23:00,
2013-06-18 21:52:00,49.0,-99.9,29.84,WSW,247,3.0,4.0,-999,-99.99,,,-99.99,,2013-06-19 05:52:00,
2013-06-18 22:02:00,49.0,-99.9,29.84,West,263,3.0,4.0,-999,-99.99,,,-99.99,,2013-06-19 06:02:00,
2013-06-18 22:11:00,49.0,-99.9,29.83,West,270,3.0,4.0,-999,-99.99,,,-99.99,,2013-06-19 06:11:00,
2013-06-18 22:22:00,49.0,-99.9,29.83,West,270,3.0,4.0,-999,-99.99,,,-99.99,,2013-06-19 06:22:00,
2013-06-18 22:34:00,47.0,-99.9,29.83,West,261,4.0,5.0,-999,-99.99,,,-99.99,,2013-06-19 06:34:00,
2013-06-18 23:01:00,44.0,-99.9,29.83,WNW,282,6.0,6.0,-999,-99.99,,,-99.99,,2013-06-19 07:01:00,
2013-06-18 23:12:00,45.0,-99.9,29.82,WNW,293,5.0,7.0,-999,-99.99,,,-99.99,,2013-06-19 07:12:00,
2013-06-18 23:22:00,45.0,-99.9,29.82,WNW,294,5.0,6.0,-999,-99.99,,,-99.99,,2013-06-19 07:22:00,